Temp
6 5 4 3 3 3 3 3 3 3 3 3 3 3 4 5 9 10 11 14 13 13 11 11 11 11 11 11 11 11 8 7 11 10 13 13 13 13 14 13 13 13 13 13 11
2 2 2 3 2 2 2 2 2 2 2 3 3 3 3 4 5 10 13 12 12 12 11 10 10 10 11 11 11 8 6 8 10 11 13 13 13 14 13 12 12 12 13 12 10
2 2 2 2 2 2 2 2 2 4 3 2 3 2 3 3 4 10 9 8 10 10 8 9 10 10 10 10 9 7 7 8 11 12 13 13 13 13 11 12 13 13 12 10 10
2 2 2 2 2 2 2 4 6 6 6 5 2 4 2 3 4 10 10 9 9 9 8 8 9 10 7 7 9 8 8 9 12 12 13 13 13 12 13 13 14 15 15 12 11
2 1 1 2 1 2 3 4 6 7 6 6 5 2 3 2 3 11 10 9 8 8 8 8 9 9 8 7 8 8 9 10 12 11 12 12 12 12 12 13 13 14 13 13 12
1 1 2 2 3 4 4 5 6 7 7 6 5 3 3 2 7 7 6 7 8 8 8 8 9 10 9 8 8 9 9 10 10 11 11 10 11 11 13 13 13 13 13 13 13
1 1 2 2 4 4 5 5 6 6 6 6 5 4 3 4 6 6 7 7 7 7 8 8 9 10 10 9 10 10 9 9 8 9 10 10 9 8 13 13 12 12 13 12 12
1 1 3 4 4 4 4 5 6 6 6 5 4 4 3 4 5 5 6 6 7 7 7 8 9 10 10 9 8 8 7 7 8 8 10 10 8 9 11 10 11 12 12 11 10
1 1 3 4 4 4 4 4 5 4 3 4 4 3 3 5 5 5 5 6 7 7 7 8 9 9 9 6 6 4 5 5 8 7 8 8 8 9 9 10 10 11 11 10 9
1 2 3 4 4 4 3 4 4 3 4 4 2 2 4 5 5 5 5 6 6 6 7 8 7 5 5 7 6 5 5 6 7 8 7 7 6 8 9 8 8 9 9 9 9
2 3 3 3 4 3 3 3 1 1 0 0 1 1 3 4 3 6 5 5 6 7 6 6 5 5 5 5 6 4 5 6 6 7 8 6 6 6 8 7 5 6 7 7 8
3 3 3 3 4 2 2 0 -0 -0 1 3 4 2 4 3 1 3 4 5 6 6 5 5 3 5 4 5 6 6 5 5 6 7 6 6 6 5 7 6 6 6 6 6 6
3 3 3 3 4 2 2 0 -0 0 -0 2 5 4 5 4 2 3 3 5 6 5 5 5 6 5 5 5 5 5 5 6 6 7 6 6 5 3 4 3 3 4 5 5 5
3 3 3 3 3 2 1 1 0 0 1 2 5 5 5 5 3 4 3 2 3 4 4 5 6 5 4 5 5 4 5 7 6 7 4 4 2 4 4 1 2 1 2 3 3
3 3 3 3 2 1 1 1 1 0 -4 4 5 6 5 4 5 3 4 2 2 4 4 4 5 4 4 5 6 5 5 5 5 2 4 4 1 3 2 1 2 -1 0 1 1
2 3 3 2 2 1 2 2 1 -3 -4 2 4 4 4 4 4 3 3 2 2 5 5 5 6 5 5 5 6 4 4 3 2 2 1 -1 2 3 1 0 3 -0 -0 0 1
3 3 3 2 1 2 2 1 -3 -4 3 3 2 3 3 2 3 2 3 3 3 2 2 5 4 5 5 3 5 5 3 1 2 1 0 -1 1 2 4 2 -3 -5 -1 0 1
3 3 2 2 2 2 2 -3 -4 1 -1 2 2 2 3 2 3 3 3 3 2 2 1 2 2 4 4 5 3 3 3 -0 -0 -1 0 1 -0 3 0 -2 -2 -1 0 -0 1
3 3 3 2 3 2 2 -4 -3 -3 1 1 2 1 0 3 2 3 2 3 3 2 1 -0 2 3 3 4 5 4 2 2 -2 -2 -1 1 2 2 0 -2 -4 -3 -1 0 1
3 3 2 2 3 3 -3 -1 -0 1 1 1 1 2 2 2 1 1 1 2 3 2 2 0 -0 1 3 5 4 4 3 3 -0 -1 1 1 2 2 1 -1 -3 -5 -1 1 2
3 2 2 2 2 1 -4 -3 -1 0 0 1 1 1 2 2 2 2 1 2 1 2 1 -0 0 0 2 3 2 3 -0 0 1 -1 -3 -2 2 -4 -5 -6 -4 -5 1 1 1
1 -4 2 2 -2 -5 -5 -3 -0 0 0 1 1 1 1 2 1 2 2 1 -0 1 2 1 -1 -3 2 2 2 3 3 2 -0 -2 -2 -3 1 -4 -7 -9 -4 -1 1 2 2
-1 -0 1 1 -6 -7 -4 -2 -0 -0 0 0 0 0 1 1 1 2 2 0 -0 1 1 1 -3 -1 2 2 2 3 2 -1 -3 -5 -2 -1 1 -2 -3 -7 -3 1 2 2 1
-1 -5 -0 -1 -2 -5 -4 -3 -1 1 0 0 0 1 1 1 1 1 2 1 0 0 0 0 -4 -2 1 -1 -3 -2 -2 1 -1 -1 -4 -2 1 3 1 -4 -3 1 2 1 0
-1 -5 -3 -7 -6 -5 -6 -1 -2 -1 -0 -1 0 1 0 -1 -1 0 1 0 1 -1 -2 -2 -2 -3 -1 -0 -2 -1 -5 -5 -3 -1 0 -2 -2 -2 -2 -4 -1 2 1 0 -2
-1 -2 -3 -3 -4 -6 -8 -6 -2 -2 -2 -1 0 -0 -0 -1 -1 -1 -1 -1 -1 -2 -5 -5 -1 -4 -4 -1 -3 -1 0 -3 -4 -1 -2 -5 -3 -3 -1 -1 -1 0 -2 -2 -2
-2 -2 -3 -3 -6 -7 -7 -4 -3 -3 -1 -1 -1 -1 -3 -1 -1 -2 -3 -3 -4 -5 -7 -9 -6 -6 -4 -4 -7 -3 -6 -5 -4 -5 -2 -2 0 -1 -1 -2 -1 -1 -1 -1 -1
Height
1513 1509 1507 1503 1501 1497 1493 1490 1487 1484 1480 1477 1475 1472 1470 1466 1462 1460 1455 1457 1458 1460 1460 1461 1462 1463 1465 1467 1469 1471 1481 1484 1473 1475 1467 1462 1462 1464 1465 1467 1470 1473 1474 1476 1478
1512 1510 1506 1503 1500 1497 1493 1489 1485 1482 1479 1475 1472 1470 1467 1463 1457 1449 1450 1450 1450 1452 1453 1456 1458 1461 1462 1463 1465 1466 1477 1473 1465 1465 1464 1464 1463 1462 1465 1467 1470 1471 1473 1474 1479
1513 1510 1506 1502 1499 1495 1491 1487 1482 1478 1474 1473 1469 1466 1464 1462 1454 1440 1442 1443 1443 1445 1449 1453 1458 1459 1459 1459 1460 1461 1464 1461 1460 1461 1462 1464 1464 1464 1463 1467 1466 1468 1470 1474 1478
1512 1507 1503 1499 1495 1491 1487 1482 1478 1474 1471 1468 1465 1461 1461 1462 1460 1442 1440 1438 1438 1440 1445 1452 1454 1456 1459 1457 1456 1459 1456 1457 1458 1460 1460 1462 1465 1465 1465 1464 1464 1466 1469 1473 1476
1511 1506 1502 1498 1494 1489 1484 1479 1473 1470 1468 1463 1460 1459 1456 1456 1443 1443 1440 1436 1439 1440 1441 1445 1451 1451 1455 1455 1455 1456 1455 1455 1456 1459 1461 1461 1462 1464 1464 1465 1465 1465 1469 1471 1476
1508 1504 1499 1494 1489 1484 1480 1474 1469 1464 1461 1459 1455 1457 1452 1448 1437 1436 1436 1433 1436 1439 1439 1442 1444 1449 1450 1453 1454 1451 1452 1453 1455 1457 1460 1462 1462 1463 1462 1464 1465 1467 1468 1471 1473
1508 1502 1497 1493 1487 1481 1475 1471 1464 1458 1452 1450 1449 1451 1443 1429 1434 1436 1434 1432 1433 1434 1436 1438 1443 1445 1447 1451 1452 1451 1453 1453 1454 1455 1458 1460 1465 1462 1462 1462 1463 1466 1468 1471 1473
1507 1502 1496 1491 1486 1479 1472 1464 1458 1453 1445 1442 1443 1442 1434 1427 1430 1429 1429 1427 1430 1430 1433 1437 1441 1443 1445 1447 1450 1454 1456 1458 1453 1454 1455 1458 1464 1457 1456 1460 1461 1463 1466 1469 1472
1505 1499 1494 1488 1482 1476 1469 1465 1456 1448 1443 1442 1441 1440 1430 1426 1425 1426 1427 1424 1424 1427 1431 1435 1438 1441 1445 1449 1456 1461 1464 1462 1455 1452 1454 1457 1460 1454 1455 1456 1458 1460 1463 1467 1471
1502 1497 1491 1486 1480 1471 1465 1457 1452 1449 1443 1440 1440 1442 1429 1425 1424 1423 1424 1421 1422 1425 1430 1433 1435 1441 1444 1445 1453 1460 1461 1459 1457 1453 1455 1457 1460 1454 1455 1454 1455 1458 1461 1464 1468
1500 1495 1490 1484 1478 1472 1462 1451 1453 1452 1449 1446 1439 1440 1429 1423 1420 1417 1422 1419 1421 1424 1427 1431 1436 1436 1437 1441 1447 1454 1456 1458 1458 1453 1454 1458 1458 1453 1455 1455 1455 1457 1460 1462 1466
1498 1493 1487 1482 1476 1471 1469 1463 1470 1469 1449 1436 1431 1431 1425 1422 1420 1416 1420 1420 1419 1423 1425 1433 1439 1438 1440 1441 1445 1450 1455 1460 1455 1453 1456 1456 1456 1452 1452 1455 1456 1456 1460 1462 1464
1497 1491 1485 1479 1474 1471 1467 1467 1466 1465 1460 1436 1430 1427 1424 1421 1421 1417 1418 1419 1418 1423 1426 1432 1432 1434 1437 1443 1446 1448 1451 1454 1455 1455 1456 1456 1458 1457 1454 1455 1457 1457 1459 1463 1465
1496 1489 1483 1476 1473 1469 1466 1464 1464 1461 1458 1442 1431 1428 1424 1420 1420 1418 1418 1423 1421 1425 1429 1432 1431 1434 1436 1440 1442 1450 1448 1449 1454 1457 1470 1464 1479 1454 1453 1457 1456 1458 1458 1461 1464
1495 1489 1482 1476 1474 1472 1467 1462 1462 1462 1489 1437 1432 1429 1426 1423 1420 1421 1420 1423 1423 1424 1430 1431 1429 1436 1438 1437 1439 1445 1444 1451 1456 1468 1464 1465 1483 1458 1455 1456 1454 1457 1458 1461 1465
1493 1487 1481 1478 1474 1470 1463 1459 1463 1476 1485 1442 1435 1432 1427 1423 1421 1421 1422 1424 1425 1424 1424 1426 1427 1431 1432 1434 1437 1446 1449 1457 1465 1469 1483 1484 1474 1458 1461 1455 1451 1455 1458 1461 1465
1491 1485 1480 1476 1472 1467 1460 1457 1478 1485 1452 1447 1441 1435 1430 1428 1424 1423 1421 1422 1422 1431 1436 1426 1431 1430 1431 1440 1441 1440 1451 1477 1474 1485 1487 1482 1479 1458 1447 1450 1454 1455 1457 1461 1465
1490 1483 1480 1476 1471 1466 1459 1461 1492 1465 1466 1450 1445 1437 1433 1431 1426 1425 1422 1421 1425 1427 1434 1436 1442 1434 1433 1434 1442 1447 1449 1473 1488 1495 1483 1475 1480 1451 1451 1452 1452 1454 1458 1462 1465
1487 1482 1480 1475 1471 1466 1461 1483 1486 1477 1463 1456 1445 1442 1442 1433 1433 1426 1425 1424 1424 1425 1436 1445 1437 1437 1435 1433 1435 1445 1454 1453 1482 1486 1487 1470 1460 1452 1452 1454 1455 1456 1459 1462 1465
1485 1481 1479 1476 1471 1467 1468 1476 1473 1469 1464 1458 1453 1448 1445 1438 1437 1432 1431 1430 1426 1426 1430 1436 1448 1442 1437 1434 1439 1438 1446 1454 1470 1490 1480 1472 1464 1456 1453 1456 1457 1459 1459 1461 1463
1485 1481 1482 1476 1470 1470 1485 1482 1474 1468 1464 1459 1455 1452 1447 1443 1436 1432 1434 1431 1429 1428 1429 1434 1441 1449 1442 1440 1444 1446 1456 1456 1461 1477 1496 1492 1461 1459 1460 1458 1457 1456 1458 1459 1461
1486 1485 1483 1478 1476 1483 1487 1483 1476 1468 1463 1458 1456 1453 1451 1445 1438 1436 1433 1433 1432 1429 1429 1433 1444 1459 1444 1442 1442 1440 1443 1448 1466 1486 1483 1491 1466 1456 1454 1452 1452 1453 1456 1458 1459
1489 1485 1484 1481 1493 1494 1486 1482 1478 1472 1466 1462 1460 1458 1453 1448 1446 1437 1436 1438 1434 1431 1432 1432 1448 1454 1445 1447 1444 1442 1444 1452 1461 1474 1476 1479 1462 1453 1451 1451 1453 1454 1456 1457 1458
1492 1493 1487 1483 1490 1493 1490 1486 1480 1472 1467 1466 1462 1457 1454 1450 1447 1444 1439 1438 1437 1436 1434 1433 1450 1448 1445 1451 1452 1455 1453 1448 1453 1468 1482 1474 1457 1447 1450 1453 1452 1452 1454 1455 1455
1495 1497 1496 1496 1493 1493 1493 1486 1484 1477 1469 1466 1462 1461 1459 1457 1453 1448 1444 1442 1438 1437 1436 1439 1448 1454 1449 1446 1450 1449 1461 1463 1461 1458 1458 1464 1464 1455 1452 1451 1450 1450 1451 1451 1453
1497 1498 1497 1494 1494 1494 1493 1492 1486 1479 1476 1467 1464 1461 1460 1460 1458 1455 1452 1451 1449 1442 1445 1445 1449 1456 1459 1449 1454 1450 1447 1457 1462 1455 1459 1465 1463 1449 1449 1448 1448 1448 1449 1450 1451
1498 1498 1496 1494 1495 1497 1496 1492 1487 1482 1472 1470 1467 1463 1462 1459 1459 1458 1456 1454 1453 1453 1456 1460 1460 1466 1468 1461 1468 1462 1463 1460 1456 1458 1453 1458 1449 1450 1448 1449 1448 1448 1449 1449 1449
Wind_Speed
22 23 23 24 24 24 24 25 25 25 25 25 26 25 24 29 31 31 35 31 26 18 16 15 16 18 19 16 11 8 2 3 4 5 5 3 3 4 5 10 7 7 5 5 27
22 22 23 23 24 25 25 26 25 25 26 25 25 26 22 26 32 37 36 32 32 26 24 23 22 21 12 12 10 6 5 9 5 3 2 1 1 8 6 6 4 7 7 13 28
23 24 24 25 25 26 27 28 28 26 26 26 25 23 25 21 32 21 3 4 11 15 19 25 20 22 10 9 10 8 7 5 4 4 2 2 1 1 10 2 7 10 16 25 30
23 24 24 25 26 27 28 30 31 28 27 25 24 22 22 13 8 1 3 3 4 12 18 22 19 13 5 6 8 4 7 7 4 4 2 1 2 1 4 2 5 8 14 26 29
24 25 26 27 29 30 32 33 33 31 29 24 25 20 19 11 29 21 24 29 9 17 23 26 21 13 6 5 5 4 4 13 12 4 2 2 4 3 4 5 4 11 19 24 26
23 25 27 29 31 33 35 35 35 31 26 23 24 18 17 17 21 18 13 14 13 18 26 26 15 19 8 4 7 5 11 5 5 6 4 5 3 2 4 8 8 12 18 22 25
26 28 30 32 35 36 36 38 37 33 28 27 21 15 20 36 30 24 19 15 10 17 23 28 18 19 9 2 7 4 3 2 5 7 4 8 4 6 15 10 13 16 19 22 25
27 29 33 35 37 38 40 37 37 30 25 18 13 14 16 22 19 12 15 18 17 14 18 19 22 13 6 8 4 4 4 2 2 6 3 9 5 4 14 14 18 19 21 25 26
28 30 34 36 37 41 37 41 31 18 11 10 10 8 10 6 10 9 25 15 15 12 15 13 19 9 6 5 3 5 4 3 4 7 3 5 3 3 8 12 20 19 20 23 24
29 31 34 36 38 35 35 39 30 7 6 16 3 5 8 5 11 23 23 14 11 12 12 10 7 4 2 5 9 4 4 1 3 1 3 3 5 4 1 4 16 18 17 18 21
29 31 34 36 37 27 35 37 29 8 31 13 27 20 31 25 22 26 18 11 14 16 6 3 4 10 13 5 6 6 4 4 2 3 3 6 6 10 3 6 8 11 14 18 19
30 31 34 36 31 21 29 23 20 18 18 18 14 15 14 15 10 12 7 7 7 10 6 4 5 3 8 7 6 4 4 4 3 3 4 1 6 7 3 2 4 9 12 16 18
30 31 34 36 20 24 26 26 20 17 6 17 13 9 7 10 5 7 2 5 11 4 4 5 1 8 7 5 7 4 7 5 4 3 2 2 5 2 1 2 2 5 11 15 17
30 31 34 30 15 28 25 26 20 10 4 6 6 5 10 14 3 5 3 1 4 8 7 2 4 4 6 5 6 6 7 8 5 2 3 3 4 4 1 3 1 3 10 16 19
31 31 33 20 22 25 28 23 14 1 4 11 7 8 23 1 8 3 7 4 2 3 6 7 7 4 2 5 5 3 5 6 4 4 2 2 3 6 3 4 6 6 10 15 18
32 31 27 18 21 27 25 22 3 5 4 7 8 10 9 5 7 5 2 2 2 7 2 3 4 6 8 3 7 11 8 7 5 2 1 4 4 5 3 5 2 4 11 15 16
29 29 15 21 27 26 24 10 4 5 5 9 8 12 10 5 5 6 1 3 2 4 2 2 3 5 4 9 4 4 6 2 2 1 4 3 2 7 2 2 3 6 14 15 15
29 25 13 22 25 23 19 5 6 3 5 5 6 14 4 7 3 6 1 2 2 2 3 5 2 2 4 3 7 5 5 5 6 3 3 2 5 5 2 4 5 7 15 15 14
29 18 15 21 21 19 8 5 4 4 5 8 12 4 5 3 1 5 4 1 1 2 4 4 2 4 3 1 3 4 2 4 7 1 3 3 6 3 2 5 5 13 17 15 10
29 10 19 22 15 12 6 3 3 5 7 3 4 4 5 6 6 3 3 5 4 0 1 2 4 4 3 2 8 2 5 4 3 3 3 4 4 4 2 3 5 3 12 11 6
23 6 18 22 10 10 3 3 5 11 14 3 3 4 5 5 4 5 7 2 5 1 2 4 3 2 3 1 6 2 2 5 5 3 5 1 5 4 5 6 8 8 10 8 4
15 3 16 23 9 3 2 4 8 9 9 4 3 3 4 7 3 4 4 5 13 3 2 1 5 3 1 2 3 2 4 4 4 4 2 3 4 2 6 5 12 12 8 5 3
14 5 9 17 4 3 7 5 5 6 7 6 4 5 3 5 5 5 5 7 16 7 2 2 2 3 2 3 3 2 2 4 5 3 6 5 4 1 1 3 10 12 9 7 9
7 4 5 9 6 2 5 5 8 12 5 9 4 6 6 3 2 4 7 3 6 8 9 2 3 4 4 5 2 3 1 3 4 3 4 5 2 2 2 3 6 12 9 10 10
6 1 2 4 4 6 0 5 7 8 5 7 3 5 7 4 6 5 4 6 4 12 4 3 3 3 4 3 2 2 4 4 3 4 5 4 6 5 5 7 12 11 11 9 7
4 3 3 5 8 6 5 3 8 9 3 6 5 10 4 2 3 4 5 3 2 6 4 5 3 2 4 5 6 1 1 3 1 2 4 3 5 7 2 4 8 10 6 5 6
5 3 2 3 2 3 2 5 9 17 7 9 10 9 3 3 5 2 5 5 3 1 4 4 3 3 2 4 4 4 5 4 2 3 5 3 2 1 2 4 7 7 8 7 10
Wind_Direction
350 350 349 348 349 344 341 338 334 330 328 325 321 313 316 311 291 287 279 283 285 278 228 207 201 192 185 185 180 163 102 213 240 158 254 174 144 133 150 138 152 167 169 168 168
356 352 351 349 345 344 341 338 334 331 330 328 325 320 306 314 307 284 287 280 278 267 226 209 199 188 183 186 184 153 162 210 206 207 260 212 199 146 147 136 133 152 173 155 166
357 355 352 349 345 341 339 336 334 332 329 325 322 321 319 314 314 295 43 353 278 248 225 211 209 192 193 174 182 181 191 199 221 212 167 122 65 139 132 194 190 183 166 164 173
357 352 350 347 344 341 337 336 336 335 328 324 320 318 316 303 284 180 185 54 316 212 197 203 205 190 178 192 195 161 207 167 196 164 122 63 143 69 220 196 174 174 186 175 182
352 351 348 345 342 341 336 332 331 330 324 308 316 313 304 281 257 272 273 281 286 191 194 197 199 187 187 195 156 216 210 209 218 204 261 225 253 247 220 174 152 166 177 184 190
352 349 346 343 342 340 334 331 328 326 321 309 300 303 272 261 287 299 287 285 205 222 209 204 208 200 200 209 181 218 197 183 185 197 197 167 234 188 271 198 183 171 179 191 196
350 347 345 344 344 340 336 331 329 325 311 298 287 275 255 251 282 279 271 281 221 231 220 213 202 190 197 188 219 164 135 155 188 176 209 181 259 219 223 221 199 188 194 198 202
347 346 346 345 345 340 335 335 334 324 305 302 286 253 248 275 293 296 324 273 249 241 229 229 209 210 186 155 67 112 71 161 302 153 203 154 258 234 228 220 217 214 204 202 205
345 346 346 346 345 341 340 340 340 326 330 317 302 231 262 296 291 308 330 301 266 252 222 226 203 192 146 111 64 5 178 184 314 183 128 184 237 278 192 204 218 212 209 204 206
345 346 346 345 345 343 344 345 348 322 284 331 332 289 276 297 298 299 311 302 258 220 196 184 153 123 74 168 212 190 125 138 192 169 167 198 252 273 31 198 223 211 206 204 204
346 346 346 345 345 346 350 1 10 343 327 281 283 272 286 308 304 275 290 300 189 176 157 148 141 202 194 179 141 140 128 164 241 250 184 226 236 252 240 87 124 163 182 186 187
348 345 344 343 343 351 354 23 353 320 311 319 305 274 325 308 299 297 293 187 185 178 119 111 221 169 153 155 145 143 141 181 296 287 170 190 257 258 190 148 163 174 182 178 176
347 345 345 343 347 349 356 354 339 328 285 296 312 293 330 329 244 294 306 273 160 129 129 161 221 164 149 148 147 161 193 156 201 1 48 310 300 278 35 88 170 200 205 193 183
347 345 345 345 357 347 355 345 336 314 294 280 338 343 317 323 290 201 119 138 358 159 145 231 178 137 155 163 146 183 191 179 205 192 224 4 264 286 118 263 218 191 191 188 181
347 345 344 349 345 348 341 342 332 331 8 322 312 333 340 332 325 68 189 150 163 176 145 219 156 130 296 167 139 212 140 146 98 105 14 329 67 270 24 274 222 190 181 182 180
347 345 343 350 346 341 342 341 321 37 281 321 320 331 342 352 350 120 128 224 274 176 40 150 128 158 190 105 147 163 91 61 71 95 14 244 136 272 208 212 102 144 173 171 175
349 346 355 356 347 341 340 3 26 96 349 332 327 330 323 321 342 9 141 153 181 116 118 57 79 326 106 82 49 120 86 56 41 25 215 307 52 251 226 102 172 187 171 171 173
347 347 3 0 347 342 350 57 51 284 284 304 298 316 329 359 347 339 208 144 195 61 112 155 163 5 4 141 156 146 165 149 173 184 235 82 234 256 24 354 282 178 160 163 170
346 351 2 356 350 350 23 52 215 265 317 312 315 347 325 357 314 331 352 60 248 167 123 128 41 319 30 86 139 176 154 151 105 326 58 228 286 335 40 43 87 138 157 166 173
346 355 4 351 357 7 61 349 292 329 305 281 314 21 317 324 345 337 3 10 333 55 184 180 90 346 320 94 28 134 153 86 7 125 234 287 272 244 239 174 151 157 168 172 189
350 9 358 357 22 43 77 271 295 299 333 283 310 297 287 317 300 341 0 59 346 76 82 118 76 313 330 52 165 119 26 57 103 110 158 218 272 216 229 205 186 201 174 173 186
349 15 356 7 48 20 6 296 301 309 346 310 290 292 309 311 331 343 11 346 348 332 139 43 131 117 166 292 296 125 165 139 124 236 88 140 276 267 258 235 192 193 179 189 268
343 318 350 22 63 339 321 302 294 316 330 346 311 7 309 298 329 13 8 352 13 13 41 169 341 88 77 10 1 212 148 113 108 91 187 140 261 167 91 106 188 192 200 246 275
355 3 339 45 88 86 345 310 332 315 301 338 287 314 327 323 323 318 349 31 20 3 45 32 89 143 173 204 130 158 113 144 114 126 167 221 241 231 174 178 206 210 239 275 269
13 360 342 334 348 345 56 328 323 344 325 329 317 2 343 317 337 2 336 342 360 5 45 64 90 93 42 31 60 141 165 168 145 161 160 242 195 259 240 215 216 230 263 251 254
18 350 327 322 320 4 348 317 315 326 278 315 309 335 335 352 5 322 326 24 3 329 49 356 98 88 8 30 26 2 80 113 87 168 292 129 271 222 222 264 255 263 247 244 292
344 308 306 351 30 27 264 348 310 317 283 249 294 302 334 7 339 349 70 67 30 105 16 51 103 53 274 6 354 343 227 196 199 245 153 189 235 77 303 290 296 299 268 278 302